Location: São Paulo
(23.5507°S, 46.6334°W)
Time: 19:14:33
(UTC-03:00)

Vanguard 2 Rocket - Pass Details

Date: 21 February 2026
Orbit: 553 x 3286 km, 32.9° (Epoch: 11 March)

Event Time Altitude Azimuth Distance (km) Brightness Sun altitude
Exits shadow 04:33:18 12° 241° (WSW) 3,013 9.2 -19.4°
Maximum altitude 04:41:00 72° 157° (SSE) 1,808 8.4 -17.8°
Drops below altitude 10° 04:55:39 10° 73° (ENE) 5,390 11.7 -14.6°
Sets 05:00:43 0° 71° (ENE) 6,742 12.3 -13.5°
